Showing default

GLOBALSTAR M087, 52888

Orbit data source: Space-Track

GLOBALSTAR M087, 52888 is a payload satellite owned by Globalstar (US) in LEO that was launched on Sun, 19 Jun 2022 UTC via an FALCON 9 launch vehicle from the Air Force Eastern Test Range (AFETR). Payload-class satellites include a variety of spacecraft equipped with specific instruments for various scientific and technological missions. These include communications satellites like Starlink; space stations such as the ISS; scientific satellites like the Hubble; Earth observation satellites from companies like Planet Labs, Umbra, and HawkEye 360; GPS; miniature CubeSats for education and research; and military/defense satellites.

Loading next visibility...
Identifier
52888, 2022-064A
Orbit
LEO
Last TLE update
16 hours ago
Origin
Manufacturer
Thales Alenia
Mission
Operational Commercial Communications
Bus & Motor
PRISMA?, LS-400 AOCS?
Mass
715 kg wet, ~500 kg dry
Launch date (UTC)
2022-06-19 (3 years ago)
Launch vehicle
FALCON 9
Launch site
Air Force Eastern Test Range (AFETR)
Object type
Payload
Rocket body
Debris
Shape & HBR
Box + 2 Pan, 12 m
Radar Cross Section
28.800 m², Large (>1 m²)

Expand to show TLE details & history

TLE from 16 hours ago
0 GLOBALSTAR M087
1 52888U 22064A   25128.70743458 -.00000100  00000-0  20273-4 0  9991
2 52888  51.9986 213.9939 0000580 131.4777 228.6140 12.62262932140058
Epoch: 2025-05-08T16:58Z
Definitive object data (Epoch: 2025-05-08T16:58:42.347Z)
Latitude
0.00001°
Longitude
92.5434°
Altitude
1,414.598 km
Speed
7.154 km/s
True Right ascension
14h 15m 58s
True Declination
0° 00' 00"
Sunlit
Object was in full shadow at TLE epoch
Visualization TLE readout
Latitude
-31.67313°
Longitude
-60.86976°
Altitude
1,423.293 km
Speed
7.149 km/s
Apparent Right ascension
04h 39m 36s
Apparent Declination
-35° 42' 26"
Sunlit
Object is in daylight
Visualization observer readout
Local Sidereal Time
17:30:21
Azimuth
71.215° E
Elevation
-79.141°
Doppler factor
1
Orbital elements
Apogee altitude
1,414.462 km
Perigee altitude
1,413.559 km
Semi-major axis
7,792.148 km
Eccentricity
0.000058
Inclination
51.9986°
RAAN
213.9939°
Arg. of periapsis
131.4777°
True anomaly
228.60901°
Mean anomaly
228.614°
Eccentric anomaly
228.61151°
Mean motion
3.15542 °/min
BSTAR
0.000020273
Orbital period
114.09 mins
Loading maneuver chart data...
Loading SW <> Apogee altitude chart data...
Loading historical data...
Loading historical data...
Loading historical data...
Loading historical data...
Loading historical data...
Loading historical data...
Loading historical data...
Other satellites on launch #64 in the year 2022 (2022-06-19 UTC)

GLOBALSTAR M087 Visibility forecast

Observer location: undefined°, undefined°

Span
Click to sort rows by Start time (UTC) header in descending order
Start Az.
Max El. time (UTC)
Max El. Az.
Max El.
End time (UTC)
End Az.
16 mins2025-05-09 10:20:02.559Z270.516° WNW2025-05-09 10:28:02.559Z343.928° N35.502°2025-05-09 10:36:02.559Z52.689° ENE
14 mins2025-05-09 12:23:02.559Z306.117° NW2025-05-09 12:29:02.559Z0.01° NNE31.578°2025-05-09 12:37:02.559Z72.184° E
16 mins2025-05-09 14:23:02.559Z310.412° NW2025-05-09 14:31:02.559Z46.283° ENE42.466°2025-05-09 14:39:02.559Z113.768° SE
14 mins2025-05-09 16:24:02.559Z292.112° WNW2025-05-09 16:30:02.559Z232.945° WSW34.097°2025-05-09 16:38:02.559Z164.194° S
14 mins2025-05-10 07:07:02.559Z193.232° SSW2025-05-10 07:13:02.559Z133.928° SE35.517°2025-05-10 07:21:02.559Z61.556° ENE
15 mins2025-05-10 09:06:02.559Z251.471° W2025-05-10 09:13:02.559Z336.317° NNW41.936°2025-05-10 09:21:02.559Z50.4° ENE
|